Lid_Strength_Index
7 7 7 7 7 7 7 7 9 8 7 8 7 6 5 5 5 5 4 4 3 3 3 3 2 2 1 1 1 1 1 1 1 0 0 -0 -0 -0 -0 -0 -0 -1 -0 -0
8 7 7 8 7 7 7 7 7 7 8 6 5 5 5 5 5 5 5 4 3 3 3 3 2 2 2 1 1 1 1 1 1 0 0 0 0 0 -0 -0 -0 -0 -0 0
9 8 8 9 8 7 7 7 7 8 8 6 7 6 6 6 5 5 4 4 3 3 2 2 2 2 2 1 1 1 1 1 1 0 1 0 0 0 0 0 -0 0 0 0
9 9 12 9 7 7 7 8 7 7 7 6 6 5 5 4 5 5 4 3 3 3 2 2 2 1 1 1 1 1 1 1 1 1 1 0 0 1 0 0 1 1 0 0
10 10 8 9 9 9 9 9 7 8 7 6 5 5 6 4 4 4 4 3 2 2 1 1 2 1 1 1 1 1 1 1 1 1 1 1 1 1 1 1 1 1 0 0
9 11 12 10 8 6 7 11 7 7 7 7 6 7 7 4 3 3 3 3 2 2 1 2 2 1 2 2 2 2 1 1 0 0 0 1 1 1 1 1 1 1 1 0
9 10 9 8 7 6 13 11 6 6 6 6 7 6 4 3 3 3 3 3 2 2 2 2 1 1 2 2 2 1 1 1 1 0 0 0 1 0 0 0 0 1 1 0
9 10 12 6 7 10 8 6 5 5 5 5 5 4 4 3 3 3 3 3 3 3 3 2 1 2 2 3 2 1 1 1 1 1 1 1 0 0 1 1 1 1 1 1
10 11 7 5 6 5 4 5 5 5 4 4 5 4 4 4 3 3 3 3 3 3 3 2 1 2 3 2 1 1 2 2 2 1 1 0 1 1 2 1 2 2 2 2
9 7 6 6 5 4 4 4 4 4 4 4 5 4 4 3 3 3 3 3 3 3 3 3 2 1 2 1 1 1 2 2 2 2 1 1 1 1 1 2 2 2 2 2
7 6 5 5 4 4 4 4 4 3 3 4 4 4 3 4 3 3 3 2 3 2 2 2 1 1 1 1 1 2 2 2 2 2 1 1 1 1 0 -0 1 2 1 1
9 6 5 5 4 4 4 4 4 4 4 3 3 4 4 4 3 3 3 3 2 2 3 2 2 2 1 1 1 1 2 2 2 2 2 1 1 1 5 7 8 9 9 5
6 4 5 4 4 3 4 4 3 3 3 4 3 3 3 3 3 4 3 3 3 3 2 2 2 2 1 1 1 1 1 2 1 2 1 1 1 1 2 3 9 10 11 10
4 4 5 4 4 3 3 3 3 3 3 3 3 3 3 3 3 3 3 3 2 4 5 2 3 2 1 1 1 1 1 4 1 1 1 1 1 1 1 1 2 1 8 7
3 3 3 3 3 3 3 3 4 4 4 3 3 3 3 4 4 4 3 2 2 3 4 4 5 5 3 1 1 1 2 2 1 1 1 1 0 0 1 1 1 1 0 7
3 3 3 4 4 4 4 3 4 4 4 4 4 3 3 3 4 4 4 4 4 4 3 3 3 3 3 2 1 1 1 3 3 1 1 1 1 1 1 1 1 1 1 1
4 5 4 4 4 4 4 3 3 3 3 3 3 3 2 3 4 5 6 6 6 6 6 5 5 4 3 3 2 1 1 1 3 1 1 1 1 1 1 1 1 1 0 1
3 3 3 3 3 4 3 3 3 3 3 2 2 2 3 3 3 3 3 4 4 4 4 3 4 3 2 2 1 1 1 1 1 1 1 1 1 1 1 1 1 1 0 1
3 3 3 3 3 3 3 3 4 3 2 2 2 2 2 2 2 2 3 3 4 4 4 3 4 2 2 3 4 2 2 2 2 1 1 2 1 1 1 1 1 1 1 1
3 3 2 2 2 2 2 2 2 2 2 2 2 2 2 2 2 2 4 5 5 4 3 3 2 2 2 2 3 2 1 1 1 1 1 1 1 0 0 3 1 1 1 1
3 3 3 3 3 2 2 2 2 2 2 2 2 2 2 2 3 3 4 4 3 3 2 2 2 2 2 2 2 2 2 2 2 2 2 2 2 2 2 1 1 1 1 1
3 3 3 3 2 2 2 1 2 1 2 2 2 2 2 3 2 2 1 2 2 4 2 2 2 3 2 2 2 3 3 2 2 2 2 2 2 2 2 1 1 1 3 2
3 3 2 3 2 2 2 1 1 2 2 2 2 2 2 2 2 3 3 0 0 2 1 1 3 2 2 0 1 1 1 1 1 2 2 2 1 1 1 1 1 1 1 1
2 2 2 1 1 2 3 2 1 1 1 1 2 1 2 2 1 0 1 3 3 3 1 1 2 3 3 0 0 0 0 0 0 0 0 3 0 1 1 1 2 2 2 2
2 2 2 2 3 2 2 2 1 1 1 2 1 1 0 -0 1 1 1 1 4 2 1 5 4 4 1 1 1 1 0 1 1 1 1 2 2 2 2 2 3 2 2 2
2 2 1 2 2 2 2 2 2 1 1 2 1 0 1 1 1 1 0 2 1 2 1 1 0 0 0 0 0 1 1 1 1 2 2 2 2 2 2 2 2 2 2 2
2 5 2 2 2 2 1 1 1 2 2 2 2 1 1 1 1 1 3 1 1 -0 -0 -1 -0 0 -0 -0 0 0 1 1 4 1 1 1 1 1 1 1 0 0 1 1